STARLINK-1008 (44714 NORAD) Tracking and Keplerian Element Data

This shows tracking and keplerian element data for the satellite.

Feedback or suggestion? Click here.




ElementValue
Catalog44714
NameSTARLINK-1008
Epoch Orbit175
Epoch Day87.91667824
Epoch Year2020
RAAN220.5387
Inclination53.0067
Eccentricity0.0001365
Argument of Perigee73.4316
Mean Anonmoly46.359
Mean Motion15.05567506
Decay Rate0.00014583
L11 44714U 19074B 20087.91667824 .00014583 00000-0 10183-2 0 9997
L22 44714 53.0067 220.5387 0001365 73.4316 46.3590 15.05567506 1759

Live tracking and technical data element details for STARLINK-1008 (NORAD 44714). STARLINK-1008 can be tracked NOW for your location showing map with azimuth and elevation plus other details from your city location.

Track the satellite on the map from your city or location and see movement details for azimuth, elevation, latitude, longitude, range, height, and movement on the map or in text.







IsCatalogInMostPopularTable: catalog: 44714, numindb: 37
Update: records affected: 1



GetName: 44714 STARLINK-1008

Hit Count: updated at: Sat, 28 Mar 2020 21:01:45 GMT